This demonstration page uses our WeatherBlox Daily Observations layout. Learn more.

39.29038, -76.61219

Hourly Observations for January 22, 2019

Temp ( °F °C ) Dew Point ( °F °C ) Humidity (%) Winds ( mph kmh ) Pressure ( in mb ) Visibility ( mi km ) Precip ( " mm )
12:54 am 00:54 undefined 17 -8.3 -3 -19.4 41 41 undefined N/A 30.56 1035 N/A 0 0
1:54 am 01:54 undefined 17 -8.3 -2 -18.9 43 43 undefined N/A 30.59 1036 N/A 0 0
2:54 am 02:54 undefined 16 -8.9 -1 -18.3 47 47 undefined N/A 30.62 1037 N/A 0 0
3:54 am 03:54 undefined 16 -8.9 0 -17.8 49 49 undefined N/A 30.65 1038 N/A 0 0
4:54 am 04:54 undefined 16 -8.9 0 -17.8 49 49 undefined N/A 30.62 1037 N/A 0 0
5:54 am 05:54 undefined 16 -8.9 1 -17.2 51 51 undefined N/A 30.68 1039 N/A 0 0
6:54 am 06:54 undefined 16 -8.9 1 -17.2 51 51 undefined N/A 30.68 1039 N/A 0 0
7:54 am 07:54 undefined 17 -8.3 2 -16.7 51 51 undefined N/A 30.68 1039 N/A 0 0
8:54 am 08:54 undefined 19 -7.2 3 -16.1 49 49 undefined N/A 30.74 1041 N/A 0 0
9:54 am 09:54 undefined 22 -5.6 3 -16.1 44 44 undefined N/A 30.71 1040 N/A 0 0
10:54 am 10:54 undefined 26 -3.3 3 -16.1 37 37 undefined N/A 30.74 1041 N/A 0 0
11:54 am 11:54 undefined 30 -1.1 5 -15 34 34 undefined N/A 30.74 1041 N/A 0 0
12:54 pm 12:54 undefined 31 -0.6 3 -16.1 30 30 undefined N/A 30.68 1039 N/A 0 0
1:54 pm 13:54 undefined 33 0.6 5 -15 30 30 undefined N/A 30.65 1038 N/A 0 0
2:54 pm 14:54 undefined 32 0 8 -13.3 36 36 undefined N/A 30.59 1036 N/A 0 0
3:54 pm 15:54 undefined 29 -1.7 10 -12.2 45 45 undefined N/A 30.56 1035 N/A 0 0
4:54 pm 16:54 undefined 29 -1.7 13 -10.6 51 51 undefined N/A 30.59 1036 N/A 0 0
5:54 pm 17:54 undefined 29 -1.7 10 -12.2 45 45 undefined N/A 30.59 1036 N/A 0 0
6:54 pm 18:54 undefined 29 -1.7 7 -13.9 39 39 undefined N/A 30.59 1036 N/A 0 0
7:54 pm 19:54 undefined 29 -1.7 10 -12.2 45 45 undefined N/A 30.59 1036 N/A 0 0
8:54 pm 20:54 undefined 30 -1.1 13 -10.6 49 49 undefined N/A 30.56 1035 N/A 0 0
9:54 pm 21:54 undefined 30 -1.1 13 -10.6 49 49 undefined N/A 30.56 1035 N/A 0 0
10:54 pm 22:54 undefined 30 -1.1 13 -10.6 49 49 undefined N/A 30.53 1034 N/A 0 0
11:54 pm 23:54 undefined 29 -1.7 12 -11.1 49 49 undefined N/A 30.5 1033 N/A 0 0

Powered by AerisWeather